DW2150 Weather Reports


Display with metric or nautical units.
time (UTC)temp
F
wind
direction
speed
MPH
gust
MPH
rain 1hr
in
rain 24hr
in
rain mn
in
humidity
%
barometer
mb
20260508033140 75 111 1.0 7.0 0.00 0.00 0.00 86 1014.2
20260508032637 75 35 2.0 7.0 0.00 0.00 0.00 85 1014.2
20260508032134 75 58 3.0 7.0 0.00 0.00 0.00 85 1014.2
20260508031631 75 81 2.0 5.0 0.00 0.00 0.00 85 1014.2
20260508031128 75 29 1.0 5.0 0.00 0.00 0.00 85 1013.9
20260508030625 75 47 1.0 5.0 0.00 0.00 0.00 85 1013.9
20260508030122 75 88 2.0 5.0 0.00 0.00 0.00 84 1013.9
20260508025559 75 50 2.0 5.0 0.00 0.00 0.00 84 1013.9
20260508025053 75 62 2.0 5.0 0.00 0.00 0.00 84 1013.9
20260508024551 75 59 1.0 5.0 0.00 0.00 0.00 83 1013.9
20260508024047 76 66 2.0 5.0 0.00 0.00 0.00 83 1013.9
20260508023545 76 63 2.0 4.0 0.00 0.00 0.00 83 1013.9
20260508023041 76 63 1.0 4.0 0.00 0.00 0.00 83 1013.9
20260508022538 76 85 2.0 6.0 0.00 0.00 0.00 82 1013.9
20260508022004 76 65 2.0 6.0 0.00 0.00 0.00 82 1014.2
20260508021500 76 30 1.0 6.0 0.00 0.00 0.00 82 1013.9
20260508020957 76 30 2.0 7.0 0.00 0.00 0.00 82 1013.9
20260508020453 76 44 2.0 7.0 0.00 0.00 0.00 82 1013.5
20260508015951 76 46 2.0 7.0 0.00 0.00 0.00 82 1013.9
20260508015448 76 34 2.0 7.0 0.00 0.00 0.00 82 1013.9
20260508014945 76 29 2.0 7.0 0.00 0.00 0.00 82 1013.9
20260508014442 76 53 2.0 7.0 0.00 0.00 0.00 82 1013.9
20260508013837 76 46 3.0 7.0 0.00 0.00 0.00 82 1013.9
20260508013334 76 29 3.0 7.0 0.00 0.00 0.00 82 1013.9
20260508012830 76 17 2.0 7.0 0.00 0.00 0.00 82 1013.9
20260508012221 76 24 2.0 7.0 0.00 0.00 0.00 82 1013.5
20260508011718 76 19 3.0 8.0 0.00 0.00 0.00 82 1013.5
20260508011144 77 51 2.0 8.0 0.00 0.00 0.00 82 1013.5
20260508010641 77 44 2.0 8.0 0.00 0.00 0.00 82 1013.5
20260508010138 77 51 4.0 8.0 0.00 0.00 0.00 82 1013.5
20260508005635 77 49 3.0 8.0 0.00 0.00 0.00 82 1013.5
20260508005132 77 46 3.0 8.0 0.00 0.00 0.00 82 1013.5
20260508004628 77 40 2.0 8.0 0.00 0.00 0.00 82 1013.5
20260508004125 77 27 2.0 8.0 0.00 0.00 0.00 82 1013.5
20260508003622 77 34 2.0 8.0 0.00 0.00 0.00 82 1013.5
20260508003119 77 71 3.0 8.0 0.00 0.00 0.00 82 1013.5
20260508002616 77 21 3.0 8.0 0.00 0.00 0.00 82 1013.5
20260508002113 77 14 2.0 7.0 0.00 0.00 0.00 82 1013.5
20260508001610 77 38 3.0 8.0 0.00 0.00 0.00 81 1013.5
20260508001011 77 63 3.0 8.0 0.00 0.00 0.00 81 1013.5
20260508000509 77 66 2.0 7.0 0.00 0.00 0.00 81 1013.5
20260508000005 77 14 3.0 7.0 0.00 0.00 0.00 81 1013.5
20260507235502 78 37 2.0 7.0 0.00 0.00 0.00 81 1013.5
20260507234959 78 64 1.0 7.0 0.00 0.00 0.00 81 1013.2
20260507234425 78 67 3.0 9.0 0.00 0.00 0.00 81 1013.2
20260507233922 78 38 2.0 9.0 0.00 0.00 0.00 81 1013.2
20260507233415 78 54 2.0 9.0 0.00 0.00 0.00 81 1013.5
20260507232911 78 55 4.0 8.0 0.00 0.00 0.00 80 1013.2
20260507232407 78 46 2.0 7.0 0.00 0.00 0.00 81 1013.2
20260507231904 78 78 2.0 7.0 0.00 0.00 0.00 81 1013.2
20260507231401 78 69 2.0 6.0 0.00 0.00 0.00 81 1013.2
20260507230858 79 11 1.0 7.0 0.00 0.00 0.00 81 1013.2
20260507230337 79 32 2.0 6.0 0.00 0.00 0.00 80 1013.5
20260507225834 79 23 2.0 6.0 0.00 0.00 0.00 81 1013.5
20260507225300 79 36 2.0 6.0 0.00 0.00 0.00 81 1013.2
20260507224757 79 22 1.0 7.0 0.00 0.00 0.00 81 1013.5
20260507224254 79 41 2.0 7.0 0.00 0.00 0.00 80 1013.5
20260507223751 79 67 2.0 7.0 0.00 0.00 0.00 80 1013.5
20260507223248 79 66 3.0 7.0 0.00 0.00 0.00 80 1013.2
20260507222745 80 14 2.0 6.0 0.00 0.00 0.00 81 1013.2
20260507222242 79 37 2.0 7.0 0.00 0.00 0.00 81 1013.2
20260507221708 79 37 2.0 7.0 0.00 0.00 0.00 81 1013.2
20260507221205 79 49 2.0 7.0 0.00 0.00 0.00 80 1013.5
20260507220702 79 61 3.0 7.0 0.00 0.00 0.00 79 1013.5
20260507220128 79 71 2.0 7.0 0.00 0.00 0.00 81 1013.5
20260507215625 79 51 2.0 7.0 0.00 0.00 0.00 79 1013.2
20260507215122 79 33 3.0 7.0 0.00 0.00 0.00 79 1013.2
20260507214618 79 350 2.0 6.0 0.00 0.00 0.00 80 1013.2
20260507214115 78 32 1.0 6.0 0.00 0.00 0.00 81 1013.2
20260507213612 78 24 2.0 6.0 0.00 0.00 0.00 81 1013.2
20260507213038 78 87 2.0 6.0 0.00 0.00 0.00 80 1013.5
20260507212535 79 59 3.0 6.0 0.00 0.00 0.00 79 1013.5
20260507212014 79 54 2.0 10.0 0.00 0.00 0.00 79 1013.5
20260507211409 79 45 2.0 10.0 0.00 0.00 0.00 79 1013.5
20260507210848 79 40 3.0 10.0 0.00 0.00 0.00 79 1013.5
20260507210345 79 40 2.0 11.0 0.00 0.00 0.00 79 1013.5
20260507205751 79 52 3.0 11.0 0.00 0.00 0.00 78 1013.9
20260507205146 78 45 4.0 11.0 0.00 0.00 0.00 78 1013.9
20260507204642 78 46 3.0 8.0 0.00 0.00 0.00 78 1014.2
20260507204139 78 39 3.0 8.0 0.00 0.00 0.00 78 1014.2
20260507203636 78 36 3.0 8.0 0.00 0.00 0.00 79 1014.2
20260507203134 78 18 3.0 8.0 0.00 0.00 0.00 79 1014.2
20260507202631 77 51 2.0 8.0 0.00 0.00 0.00 80 1014.2
20260507202127 77 66 3.0 8.0 0.00 0.00 0.00 79 1014.2
20260507201625 77 52 3.0 8.0 0.00 0.00 0.00 80 1014.2
20260507201122 77 46 2.0 8.0 0.00 0.00 0.00 79 1014.6
20260507200600 77 29 2.0 7.0 0.00 0.00 0.00 79 1014.6
20260507200018 77 59 2.0 7.0 0.00 0.00 0.00 79 1014.6
20260507195516 77 31 1.0 7.0 0.00 0.00 0.00 81 1014.6
20260507195012 76 74 2.0 7.0 0.00 0.00 0.00 81 1014.6
20260507194510 76 49 3.0 5.0 0.00 0.00 0.00 80 1014.6
20260507194007 76 299 2.0 5.0 0.00 0.00 0.00 80 1014.6
20260507193504 76 43 3.0 5.0 0.00 0.00 0.00 81 1014.9
20260507192946 76 120 1.0 5.0 0.00 0.00 0.00 81 1014.9
20260507192443 75 299 2.0 5.0 0.00 0.00 0.00 82 1014.9
20260507191940 75 30 2.0 7.0 0.00 0.00 0.00 81 1014.9
20260507191437 75 42 2.0 7.0 0.00 0.00 0.00 82 1014.9
20260507190934 74 278 2.0 7.0 0.00 0.00 0.00 83 1014.9
20260507190431 73 59 3.0 7.0 0.00 0.00 0.00 83 1014.9
20260507185928 73 35 2.0 5.0 0.00 0.00 0.00 84 1015.2
20260507185426 73 326 0.0 6.0 0.00 0.00 0.00 83 1015.2
20260507184923 73 272 2.0 6.0 0.00 0.00 0.00 83 1015.2
20260507184420 73 71 2.0 6.0 0.00 0.00 0.00 83 1015.2
20260507183846 73 66 3.0 6.0 0.00 0.00 0.00 82 1015.2
20260507183344 73 68 2.0 6.0 0.00 0.00 0.00 81 1015.2
20260507182840 73 20 2.0 4.0 0.00 0.00 0.00 82 1015.2
20260507182337 73 56 1.0 5.0 0.00 0.00 0.00 82 1015.6
20260507181835 73 325 1.0 7.0 0.00 0.00 0.00 82 1015.6
20260507181301 73 69 3.0 7.0 0.00 0.00 0.00 82 1015.6
20260507180742 73 257 2.0 7.0 0.00 0.00 0.00 83 1015.6
20260507180137 73 46 2.0 11.0 0.00 0.00 0.00 83 1015.6
20260507175634 71 52 2.0 11.0 0.00 0.00 0.00 86 1015.6
20260507175131 71 272 2.0 11.0 0.00 0.00 0.00 84 1015.6
20260507174628 71 64 3.0 10.0 0.00 0.00 0.00 85 1015.6
20260507174023 71 54 3.0 7.0 0.00 0.00 0.00 85 1015.9
20260507173501 70 272 2.0 7.0 0.00 0.00 0.00 86 1015.9
20260507172958 69 43 2.0 7.0 0.00 0.00 0.00 86 1015.9
20260507172424 69 35 3.0 7.0 0.00 0.00 0.00 85 1015.9
20260507171921 69 51 1.0 6.0 0.00 0.00 0.00 86 1015.9
20260507171400 69 71 2.0 6.0 0.00 0.00 0.00 86 1015.9
20260507170857 68 59 1.0 8.0 0.00 0.00 0.00 87 1015.9
20260507170353 68 64 3.0 8.0 0.00 0.00 0.00 86 1015.9
20260507165819 68 67 3.0 8.0 0.00 0.00 0.00 87 1015.9
20260507165316 67 20 3.0 8.0 0.00 0.00 0.00 87 1015.9
20260507164813 67 45 3.0 8.0 0.00 0.00 0.00 87 1015.9
20260507164310 67 10 1.0 7.0 0.00 0.00 0.00 87 1015.9
20260507163807 67 42 3.0 7.0 0.00 0.00 0.00 87 1015.9
20260507163304 67 38 2.0 7.0 0.00 0.00 0.00 87 1015.9
20260507162730 67 79 1.0 5.0 0.00 0.00 0.00 88 1016.3
20260507162227 67 354 1.0 5.0 0.00 0.00 0.00 88 1015.9
20260507161725 67 81 2.0 5.0 0.00 0.00 0.00 88 1015.9
20260507161222 66 24 2.0 5.0 0.00 0.00 0.00 88 1015.9
20260507160719 66 101 2.0 5.0 0.00 0.00 0.00 89 1015.6
20260507160216 66 45 2.0 8.0 0.00 0.00 0.00 88 1015.9
20260507155713 66 110 1.0 8.0 0.00 0.00 0.00 88 1015.9
20260507155139 66 56 2.0 8.0 0.00 0.00 0.00 88 1015.9
20260507154636 66 48 3.0 8.0 0.00 0.00 0.00 88 1015.9
20260507154133 66 55 3.0 8.0 0.00 0.00 0.00 89 1015.9
20260507153629 66 44 2.0 8.0 0.00 0.00 0.00 88 1015.9
20260507153055 66 56 2.0 7.0 0.00 0.00 0.00 88 1015.9
20260507152553 66 59 3.0 7.0 0.00 0.00 0.00 88 1015.9
20260507152049 66 56 3.0 7.0 0.00 0.00 0.00 88 1016.3
20260507151546 66 39 3.0 8.0 0.00 0.00 0.00 88 1015.9
20260507151043 66 41 1.0 8.0 0.00 0.00 0.00 89 1015.9
20260507150540 66 60 2.0 8.0 0.00 0.00 0.00 88 1015.9
20260507150037 66 50 2.0 9.0 0.00 0.00 0.00 89 1015.9
20260507145503 66 326 1.0 9.0 0.00 0.00 0.00 89 1015.9
20260507144959 66 321 2.0 9.0 0.00 0.00 0.00 89 1015.9
20260507144457 66 67 2.0 10.0 0.00 0.00 0.00 89 1015.9
20260507143923 66 32 3.0 10.0 0.00 0.00 0.00 89 1015.6
20260507143420 66 45 3.0 10.0 0.00 0.00 0.00 89 1015.6
20260507142814 66 38 5.0 10.0 0.00 0.00 0.00 89 1015.9
20260507142311 66 47 3.0 13.0 0.00 0.00 0.00 89 1015.6
20260507141808 66 60 2.0 13.0 0.00 0.00 0.00 89 1015.6
20260507141306 65 45 3.0 13.0 0.00 0.00 0.00 90 1015.6
20260507140701 66 53 4.0 13.0 0.00 0.00 0.00 89 1015.6
20260507140158 66 60 3.0 7.0 0.00 0.00 0.00 90 1015.6
20260507135654 66 25 2.0 7.0 0.00 0.00 0.00 90 1015.6
20260507135151 66 47 3.0 7.0 0.00 0.00 0.00 90 1015.9
20260507134634 66 54 2.0 7.0 0.00 0.00 0.00 90 1015.9
20260507134131 66 324 2.0 7.0 0.00 0.00 0.00 90 1015.9
20260507133628 66 56 2.0 8.0 0.00 0.00 0.00 90 1015.9
20260507133054 66 68 2.0 8.0 0.00 0.00 0.00 89 1015.9
20260507132551 66 66 2.0 6.0 0.00 0.00 0.00 89 1015.9
20260507132016 66 80 1.0 6.0 0.00 0.00 0.00 90 1015.9
20260507131514 66 264 2.0 6.0 0.00 0.00 0.00 89 1015.6
20260507131010 67 50 2.0 6.0 0.00 0.00 0.00 89 1015.6
20260507130507 67 228 2.0 4.0 0.00 0.00 0.00 89 1015.6
20260507130005 67 56 2.0 5.0 0.00 0.00 0.00 89 1015.6
20260507125501 67 284 1.0 5.0 0.00 0.00 0.00 89 1015.2
20260507124940 67 56 2.0 5.0 0.00 0.00 0.00 89 1015.2
20260507124436 67 10 1.0 5.0 0.00 0.00 0.00 89 1014.9
20260507123933 68 288 1.0 4.0 0.00 0.00 0.00 89 1014.9
20260507123430 68 344 2.0 4.0 0.00 0.00 0.00 89 1014.9
20260507122927 68 22 2.0 7.0 0.00 0.00 0.00 89 1014.9
20260507122424 68 99 1.0 7.0 0.00 0.00 0.00 89 1014.6
20260507121921 68 25 1.0 7.0 0.00 0.00 0.00 89 1014.6
20260507121347 68 33 2.0 7.0 0.00 0.00 0.00 89 1014.6
20260507120844 68 35 2.0 5.0 0.00 0.00 0.00 89 1014.6
20260507120322 68 60 2.0 5.0 0.00 0.00 0.00 90 1014.2
20260507115819 68 58 1.0 7.0 0.00 0.00 0.00 90 1014.2
20260507115244 68 65 1.0 7.0 0.00 0.00 0.00 90 1014.2
20260507114741 68 53 1.0 7.0 0.00 0.00 0.00 89 1014.2
20260507114238 68 48 2.0 7.0 0.00 0.00 0.00 89 1013.9
20260507113704 68 37 2.0 5.0 0.00 0.00 0.00 90 1013.9
20260507113201 68 58 2.0 5.0 0.00 0.00 0.00 90 1013.9
20260507112658 68 78 1.0 7.0 0.00 0.00 0.00 90 1013.9
20260507112155 68 33 1.0 8.0 0.00 0.00 0.00 90 1013.5
20260507111653 68 51 2.0 8.0 0.00 0.00 0.00 90 1013.5
20260507111150 69 36 2.0 8.0 0.00 0.00 0.00 90 1013.5
20260507110647 69 27 2.0 8.0 0.00 0.00 0.00 90 1013.5
20260507110145 69 28 2.0 6.0 0.00 0.00 0.00 90 1013.9
20260507105642 69 21 1.0 4.0 0.00 0.00 0.00 90 1013.5
20260507105108 69 26 1.0 4.0 0.00 0.00 0.00 90 1013.5
20260507104605 69 44 1.0 6.0 0.00 0.00 0.00 90 1013.5
20260507104030 69 43 2.0 6.0 0.00 0.00 0.00 90 1013.5
20260507103456 69 62 2.0 6.0 0.00 0.00 0.00 90 1013.5
20260507102953 69 49 3.0 6.0 0.00 0.00 0.00 90 1013.5
20260507102449 69 22 2.0 6.0 0.00 0.00 0.00 90 1013.2
20260507101946 69 23 3.0 6.0 0.00 0.00 0.00 90 1013.2
20260507101442 69 39 1.0 6.0 0.00 0.00 0.00 90 1013.2
20260507100939 69 32 2.0 7.0 0.00 0.00 0.00 90 1012.9
20260507100346 69 339 1.0 7.0 0.00 0.00 0.00 90 1013.2
20260507095843 69 24 1.0 7.0 0.00 0.00 0.00 90 1012.9
20260507095340 70 254 1.0 7.0 0.00 0.00 0.00 90 1012.9
20260507094837 70 34 2.0 8.0 0.00 0.00 0.00 90 1012.9
20260507094335 70 65 2.0 8.0 0.00 0.00 0.00 90 1012.9
20260507093831 70 63 3.0 8.0 0.00 0.00 0.00 90 1012.9
20260507093328 70 38 2.0 8.0 0.00 0.00 0.00 90 1012.9
20260507092826 70 44 3.0 7.0 0.00 0.00 0.00 90 1012.9
20260507092220 70 96 2.0 6.0 0.00 0.00 0.00 90 1012.9
20260507091717 70 49 2.0 6.0 0.00 0.00 0.00 90 1013.2
20260507091214 70 67 1.0 8.0 0.00 0.00 0.00 90 1012.9
20260507090616 70 87 3.0 9.0 0.00 0.00 0.00 90 1012.9
20260507090023 71 78 1.0 9.0 0.00 0.00 0.00 90 1012.9
20260507085520 71 28 3.0 9.0 0.00 0.00 0.00 90 1012.5
20260507085017 71 51 2.0 8.0 0.00 0.00 0.00 90 1012.5
20260507084514 71 50 2.0 8.0 0.00 0.00 0.00 90 1012.5
20260507083940 71 280 1.0 8.0 0.00 0.00 0.00 90 1012.5
20260507083436 71 149 1.0 8.0 0.00 0.00 0.00 90 1012.2
20260507082932 71 87 2.0 8.0 0.00 0.00 0.00 90 1012.5
20260507082430 71 49 2.0 6.0 0.00 0.00 0.00 90 1012.5
20260507081927 71 262 1.0 5.0 0.00 0.00 0.00 90 1012.5
20260507081424 72 64 2.0 5.0 0.00 0.00 0.00 90 1012.5
20260507080903 72 5 1.0 5.0 0.00 0.00 0.00 90 1012.5
20260507080400 72 70 1.0 7.0 0.00 0.00 0.00 90 1012.5
20260507075839 72 52 1.0 7.0 0.00 0.00 0.00 90 1012.5
20260507075306 72 56 1.0 7.0 0.00 0.00 0.00 90 1012.5
20260507074801 72 47 2.0 4.0 0.00 0.00 0.00 90 1012.5
20260507074258 72 66 1.0 5.0 0.00 0.00 0.00 90 1012.5
20260507073755 72 313 2.0 5.0 0.00 0.00 0.00 90 1012.5
20260507073252 72 161 1.0 4.0 0.00 0.00 0.00 90 1012.9
20260507072749 72 304 2.0 4.0 0.00 0.00 0.00 89 1012.5
20260507072246 73 82 1.0 11.0 0.00 0.00 0.00 89 1012.5
20260507071743 73 58 2.0 11.0 0.00 0.00 0.00 90 1012.5
20260507071209 73 257 1.0 11.0 0.00 0.00 0.00 89 1012.9
20260507070706 73 343 1.0 11.0 0.00 0.00 0.00 89 1012.5
20260507070132 73 208 3.0 5.0 0.00 0.00 0.00 89 1012.5
20260507065602 73 43 1.0 5.0 0.00 0.00 0.00 89 1012.5
20260507065058 73 242 1.0 5.0 0.00 0.00 0.00 90 1012.5
20260507064556 73 42 2.0 5.0 0.00 0.00 0.00 90 1012.5
20260507064052 73 1 2.0 5.0 0.00 0.00 0.00 90 1012.5
20260507063515 73 74 1.0 3.0 0.00 0.00 0.00 90 1012.5
20260507063012 74 50 1.0 4.0 0.00 0.00 0.00 90 1012.5
20260507062407 74 273 1.0 5.0 0.00 0.00 0.00 90 1012.5
20260507061904 74 286 1.0 5.0 0.00 0.00 0.00 90 1012.5
20260507061400 74 68 2.0 5.0 0.00 0.00 0.00 90 1012.5
20260507060857 74 52 2.0 5.0 0.00 0.00 0.00 90 1012.5
20260507060354 74 99 1.0 5.0 0.00 0.00 0.00 90 1012.2
20260507055851 74 52 2.0 5.0 0.00 0.00 0.00 90 1012.2
20260507055245 74 120 1.0 4.0 0.00 0.00 0.00 90 1012.2
20260507054742 74 53 1.0 4.0 0.00 0.00 0.00 90 1012.2
20260507054238 74 57 1.0 3.0 0.00 0.00 0.00 90 1012.2
20260507053704 74 76 1.0 5.0 0.00 0.00 0.00 90 1012.5
20260507053201 75 258 2.0 5.0 0.00 0.00 0.00 90 1012.5
20260507052658 75 55 1.0 5.0 0.00 0.00 0.00 90 1012.5
20260507052123 75 25 1.0 5.0 0.00 0.00 0.00 91 1012.2
20260507051621 75 23 1.0 5.0 0.00 0.00 0.00 91 1012.2
20260507051118 75 73 2.0 5.0 0.00 0.00 0.00 91 1012.2
20260507050543 75 238 1.0 5.0 0.00 0.00 0.00 91 1012.5
20260507050020 75 298 1.0 9.0 0.00 0.00 0.00 91 1012.2
20260507045517 75 255 1.0 9.0 0.00 0.00 0.00 91 1012.2
20260507045014 75 359 2.0 9.0 0.00 0.00 0.00 91 1012.2
20260507044511 75 290 1.0 9.0 0.00 0.00 0.00 91 1012.2
20260507044009 76 240 2.0 8.0 0.00 0.00 0.00 91 1012.5
20260507043505 76 261 2.0 8.0 0.00 0.00 0.00 91 1012.5
20260507043002 77 278 2.0 8.0 0.00 0.00 0.00 92 1012.5
20260507042428 78 245 2.0 8.0 0.00 0.00 0.00 92 1012.2
20260507041925 78 286 2.0 3.0 0.00 0.00 0.00 93 1012.2
20260507041351 78 310 0.0 0.0 0.00 0.00 0.00 93 1011.9
20260507040848 78 310 0.0 0.0 0.00 0.00 0.00 93 1011.9
20260507040252 78 310 0.0 0.0 0.00 0.00 0.00 93 1011.9
20260507035716 78 310 0.0 0.0 0.00 0.00 0.00 93 1011.9
20260507035214 78 310 0.0 0.0 0.00 0.00 0.00 93 1011.9
20260507034711 78 310 0.0 0.0 0.00 0.00 0.00 93 1011.9
20260507034208 78 310 0.0 0.0 0.00 0.00 0.00 93 1011.9
20260507033705 78 310 0.0 0.0 0.00 0.00 0.00 93 1011.5